Change the Weather History Date:

Friday, June 14, 2013

  Actual Average Record
Temperature  
Mean Temperature 68 °F -  
Max Temperature 78 °F 84 °F 95 °F (1984)
Min Temperature 59 °F 66 °F 46 °F (1985)
Cooling Degree Days 4    
Growing Degree Days 18 (Base 50)    
Moisture  
Dew Point 60 °F    
Average Humidity 71    
Maximum Humidity 93    
Minimum Humidity 42    
Precipitation  
Precipitation 0.00 in - - ()
Sea Level Pressure  
Sea Level Pressure 29.84 in    
Wind  
Wind Speed 6 mph (NW)    
Max Wind Speed 15 mph    
Max Gust Speed 22 mph    
Visibility 10 miles    
Events      
Averages and records for this station are not official NWS values.
T = Trace of Precipitation, MM = Missing Value Source: NWS Daily Summary

Daily Weather History Graph

Daily Weather History Graph

Search for Another Location

Airport or City:

Trip Planner

Search our weather history database for the weather conditions in past years. The results will help you decide how hot, cold, wet, or windy it might be!

Date:

Astronomy

Jun. 14, 2013 Rise Set
Actual Time 5:55 AM EDT 8:26 PM EDT
Civil Twilight 5:25 AM EDT 8:56 PM EDT
Nautical Twilight 4:48 AM EDT 9:33 PM EDT
Astronomical Twilight 4:07 AM EDT 10:14 PM EDT
Moon 11:17 AM EDT (6/14) No Moon Set
Length of Visible Light 15h 31m
Length of Day
14h 31m
Waxing Crescent, 30% of the Moon is Illuminated
Jun 14
Waxing Crescent
Jun 16
First Quarter
Jun 23
Full
Jun 30
Last Quarter
Jul 8
New

Hourly Weather History & Observations

Time (EDT) Temp. Dew Point Humidity Pressure Visibility Wind Dir Wind Speed Gust Speed Precip Events Conditions
12:15 AM 72.1 °F 66.2 °F 82% 29.73 in 10.0 mi SW 5.8 mph - N/A   Scattered Clouds
12:35 AM 71.4 °F 66.4 °F 84% 29.73 in 10.0 mi SW 4.6 mph - N/A   Clear
12:55 AM 71.2 °F 66.7 °F 86% 29.72 in 10.0 mi Calm Calm - N/A   Clear
1:15 AM 70.7 °F 66.2 °F 86% 29.72 in 10.0 mi WSW 3.5 mph - N/A   Clear
1:35 AM 70.3 °F 66.4 °F 87% 29.73 in 10.0 mi West 3.5 mph - N/A   Clear
1:55 AM 70.5 °F 66.2 °F 86% 29.73 in 10.0 mi West 4.6 mph - N/A   Clear
2:15 AM 70.7 °F 66.2 °F 86% 29.72 in 10.0 mi West 4.6 mph - N/A   Clear
2:35 AM 70.3 °F 65.8 °F 86% 29.72 in 10.0 mi West 5.8 mph - N/A   Clear
2:55 AM 70.5 °F 65.5 °F 84% 29.71 in 10.0 mi WNW 6.9 mph - N/A   Clear
3:15 AM 70.7 °F 65.3 °F 83% 29.72 in 10.0 mi WNW 6.9 mph - N/A   Scattered Clouds
3:35 AM 70.9 °F 65.3 °F 82% 29.72 in 10.0 mi WNW 5.8 mph - N/A   Scattered Clouds
3:55 AM 70.7 °F 64.8 °F 81% 29.73 in 10.0 mi NW 6.9 mph - N/A   Scattered Clouds
4:15 AM 69.8 °F 64.2 °F 82% 29.73 in 10.0 mi WNW 6.9 mph - N/A   Clear
4:35 AM 69.8 °F 63.3 °F 80% 29.73 in 10.0 mi NW 5.8 mph - N/A   Clear
4:55 AM 69.4 °F 61.7 °F 76% 29.73 in 10.0 mi WNW 5.8 mph - N/A   Clear
5:15 AM 68.9 °F 60.8 °F 75% 29.74 in 10.0 mi NW 6.9 mph - N/A   Clear
5:35 AM 68.2 °F 59.9 °F 75% 29.75 in 10.0 mi WNW 6.9 mph - N/A   Clear
5:55 AM 67.5 °F 58.8 °F 74% 29.75 in 10.0 mi WNW 5.8 mph - N/A   Clear
6:15 AM 66.7 °F 58.5 °F 75% 29.76 in 10.0 mi NW 6.9 mph - N/A   Clear
6:35 AM 67.1 °F 58.1 °F 73% 29.77 in 10.0 mi WNW 4.6 mph - N/A   Clear
6:55 AM 67.6 °F 57.9 °F 71% 29.78 in 10.0 mi NW 6.9 mph - N/A   Clear
6:56 AM 68.0 °F 57.2 °F 68% 29.78 in 10.0 mi NW 8.1 mph - N/A   Clear
7:56 AM 69.8 °F 57.2 °F 64% 29.79 in 10.0 mi NNW 8.1 mph - N/A   Clear
8:56 AM 73.4 °F 57.2 °F 57% 29.82 in 10.0 mi North 9.2 mph - N/A   Clear
9:56 AM 75.2 °F 55.4 °F 50% 29.84 in 10.0 mi NNW 15.0 mph 21.9 mph N/A   Clear
10:56 AM 77.0 °F 55.4 °F 47% 29.85 in 10.0 mi NNW 12.7 mph 20.7 mph N/A   Clear
11:56 AM 77.0 °F 55.4 °F 47% 29.87 in 10.0 mi NNW 10.4 mph - N/A   Scattered Clouds
12:56 PM 77.0 °F 55.4 °F 47% 29.88 in 10.0 mi North 12.7 mph 19.6 mph N/A   Scattered Clouds
1:56 PM 77.0 °F 55.4 °F 47% 29.88 in 10.0 mi North 12.7 mph 17.3 mph N/A   Scattered Clouds
2:56 PM 78.8 °F 57.2 °F 47% 29.90 in 10.0 mi North 12.7 mph 17.3 mph N/A   Scattered Clouds
3:56 PM 77.0 °F 53.6 °F 44% 29.91 in 10.0 mi North 8.1 mph - N/A   Scattered Clouds
4:56 PM 78.8 °F 55.4 °F 44% 29.92 in 10.0 mi NNW 11.5 mph - N/A   Scattered Clouds
5:56 PM 78.8 °F 53.6 °F 42% 29.93 in 10.0 mi North 11.5 mph 17.3 mph N/A   Partly Cloudy
6:56 PM 77.0 °F 53.6 °F 44% 29.93 in 10.0 mi North 9.2 mph - N/A   Clear
7:56 PM 73.4 °F 53.6 °F 50% 29.96 in 10.0 mi North 4.6 mph - N/A   Clear
9:15 PM 70.0 °F 55.2 °F 59% 29.98 in 10.0 mi NE 3.5 mph - N/A   Clear
9:35 PM 69.1 °F 56.3 °F 64% 29.99 in 10.0 mi Calm Calm - N/A   Clear
9:55 PM 65.7 °F 56.5 °F 72% 29.99 in 10.0 mi Calm Calm - N/A   Clear
10:15 PM 62.8 °F 57.0 °F 81% 30.00 in 10.0 mi Calm Calm - N/A   Clear
10:35 PM 62.2 °F 57.2 °F 84% 30.01 in 10.0 mi Calm Calm - N/A   Clear
10:55 PM 60.8 °F 57.4 °F 88% 30.01 in 10.0 mi Calm Calm - N/A   Clear
11:15 PM 60.8 °F 57.2 °F 88% 30.02 in 10.0 mi Calm Calm - N/A   Clear
11:35 PM 59.9 °F 57.2 °F 91% 30.03 in 10.0 mi Calm Calm - N/A   Clear
11:55 PM 59.4 °F 57.2 °F 93% 30.04 in 10.0 mi Calm Calm - N/A   Clear